Regional Weather Roundup
Issued by NWS State College, PA

Home | Current Version | Previous Version | Graphics & Text | Print | Product List | Glossary On
Versions: 1 2 3 4 5 6 7 8 9 10 11 12 13 14 15 16 17 18 19 20 21 22 23 24 25 26 27 28 29 30 31 32 33 34 35 36 37 38 39 40 41 42 43 44 45 46 47 48 49 50
000
ASUS41 KCTP 020803
RWRCTP

REGIONAL WEATHER ROUNDUP
NATIONAL WEATHER SERVICE STATE COLLEGE PA
400 AM EDT TUE SEP 02 2014

Note: "fair" indicates few or no clouds below 12,000 feet with no
significant weather and/or obstructions to visibility.

* = STATION THAT DOES NOT REPORT PRECIPITATION /E.G. RAIN...SNOW...ETC/
    THUNDER OR FOG.

PAZ002>004-007>009-013>016-020>023-029>032-020900-
WESTERN PENNSYLVANIA

CITY           SKY/WX    TMP DP  RH WIND       PRES   REMARKS
ERIE           PTCLDY    74  69  85 SW12G17   29.87S
MEADVILLE      CLOUDY    72  69  90 SW6       29.92F
FRANKLIN*      CLOUDY    72  66  83 SW7       29.95F
NEW CASTLE     PTSUNNY   71  70  97 CALM      29.95R
BEAVER COUNTY  NOT AVBL
BUTLER*        PTCLDY    72  66  83 SW6       29.97S
PITTSBURGH INT PTCLDY    73  69  87 SW8       29.96S
PITTSBURGH     PTCLDY    71  67  87 S7        29.97S
INDIANA*       CLOUDY    70  68  94 SW3       30.01F
LATROBE        PTCLDY    73  70  88 S9        29.99S
WASHINGTON CO* MOCLDY    72  66  83 SW6       29.99S
$$

PAZ004>006-010>012-017>019-024>028-033>037-041-042-045-046-049>053-020900-
CENTRAL PENNSYLVANIA

CITY           SKY/WX    TMP DP  RH WIND       PRES   REMARKS
BRADFORD       LGT RAIN  70  68  93 W8        29.96F
DUBOIS         CLOUDY    70  69  97 SW9       29.97S
CLEARFIELD     CLOUDY    70  69  97 S7        29.97F
JOHNSTOWN      CLOUDY    70  65  84 SW9       30.02F
ALTOONA        PTCLDY    72  67  84 S7        29.98F
STATE COLLEGE  PTCLDY    70  67  92 S6        29.96S
WILLIAMSPORT   CLOUDY    70  68  93 CALM      29.91S FOG
SELINSGROVE    CLEAR     68  66  93 CALM      29.93S FOG
FT INDIANTOWN  CLEAR     68  68 100 E2        29.94S FOG
CAPITAL CITY   CLEAR     74  71  91 W6        29.93S
HARRISBURG     PTCLDY    74  71  91 CALM      29.92S
YORK           CLEAR     74  68  81 CALM      29.94F
$$

PAZ038>040-043-044-047-048-054-055-060>062-067>071-020900-
EASTERN PENNSYLVANIA

CITY           SKY/WX    TMP DP  RH WIND       PRES   REMARKS
SCRANTON       CLEAR     69  67  93 CALM      29.93S FOG
MOUNT POCONO   CLEAR     70  67  90 SW7       29.98F
ALLENTOWN      PTCLDY    70  68  94 CALM      29.93F FOG
QUAKERTOWN*    SUNNY     68  68 100 CALM      29.95S
READING        CLEAR     73  70  90 S3        29.92S
LANCASTER      FOG       70  69  97 CALM      29.94S VSB 1/2
COATESVILLE    SUNNY     73  73 100 SW3       29.96F
POTTSTOWN      MOCLDY    73  72  96 CALM      29.94F
BLUE BELL      CLEAR     72  72 100 CALM      29.92F
DOYLESTOWN     CLEAR     71  71 100 CALM      29.93F
WILLOW GROVE   NOT AVBL
NORTH PHILA    CLEAR     78  72  81 CALM      29.93F
PHILADELPHIA   PTCLDY    77  72  84 SW7       29.93F
$$



USA.gov is the U.S. government's official web portal to all federal, state and local government web resources and services.